TimePST,TemperatureF,Dew PointF,Humidity,Sea Level PressureIn,VisibilityMPH,Wind Direction,Wind SpeedMPH,Gust SpeedMPH,PrecipitationIn,Events,Conditions,WindDirDegrees,DateUTC
12:53 AM,37.9,34.0,86,30.55,10.0,ESE,5.8,-,N/A,,Overcast,120,2013-01-17 08:53:00
1:53 AM,37.9,34.0,86,30.51,10.0,SE,6.9,-,N/A,,Overcast,140,2013-01-17 09:53:00
2:53 AM,37.9,34.0,86,30.50,10.0,SE,5.8,-,N/A,,Overcast,140,2013-01-17 10:53:00
3:53 AM,37.4,33.8,87,30.49,10.0,SSE,4.6,-,N/A,,Overcast,160,2013-01-17 11:53:00
4:53 AM,37.0,33.1,86,30.48,10.0,SSE,5.8,-,N/A,,Overcast,150,2013-01-17 12:53:00
5:53 AM,37.0,33.1,86,30.46,10.0,SSE,5.8,-,N/A,,Overcast,150,2013-01-17 13:53:00
6:53 AM,37.0,33.1,86,30.45,10.0,SSE,3.5,-,N/A,,Overcast,150,2013-01-17 14:53:00
7:53 AM,37.0,33.1,86,30.45,10.0,ESE,3.5,-,N/A,,Overcast,120,2013-01-17 15:53:00
8:53 AM,37.0,34.0,89,30.46,10.0,South,5.8,-,N/A,,Overcast,180,2013-01-17 16:53:00
9:53 AM,37.9,34.0,86,30.46,10.0,SSE,6.9,-,N/A,,Overcast,160,2013-01-17 17:53:00
10:53 AM,39.0,35.1,86,30.45,10.0,SE,3.5,-,N/A,,Overcast,140,2013-01-17 18:53:00
11:53 AM,39.0,35.1,86,30.42,10.0,ESE,3.5,-,N/A,,Overcast,110,2013-01-17 19:53:00
12:53 PM,39.9,35.1,83,30.40,10.0,ESE,4.6,-,N/A,,Overcast,120,2013-01-17 20:53:00
1:53 PM,39.9,36.0,86,30.36,10.0,ESE,4.6,-,N/A,,Overcast,120,2013-01-17 21:53:00
2:11 PM,41.0,36.0,82,30.33,10.0,Calm,Calm,-,N/A,,Scattered Clouds,0,2013-01-17 22:11:00
2:53 PM,39.9,36.0,86,30.35,10.0,East,3.5,-,N/A,,Clear,90,2013-01-17 22:53:00
3:53 PM,39.0,35.1,86,30.33,10.0,ESE,5.8,-,N/A,,Clear,110,2013-01-17 23:53:00
4:02 PM,39.0,35.1,86,30.32,10.0,ESE,3.5,-,N/A,,Scattered Clouds,110,2013-01-18 00:02:00
4:16 PM,37.9,35.1,89,30.32,10.0,East,4.6,-,N/A,,Mostly Cloudy,90,2013-01-18 00:16:00
4:41 PM,37.0,35.1,93,30.31,10.0,SE,5.8,-,N/A,,Scattered Clouds,140,2013-01-18 00:41:00
4:53 PM,37.0,34.0,89,30.33,7.0,Calm,Calm,-,N/A,,Clear,0,2013-01-18 00:53:00
5:50 PM,35.6,33.8,93,30.30,6.0,Calm,Calm,-,N/A,,Scattered Clouds,0,2013-01-18 01:50:00
5:53 PM,35.1,33.1,92,30.31,6.0,Calm,Calm,-,N/A,,Partly Cloudy,0,2013-01-18 01:53:00
6:53 PM,34.0,32.0,92,30.32,5.0,Calm,Calm,-,N/A,,Clear,0,2013-01-18 02:53:00
7:53 PM,32.0,32.0,100,30.32,8.0,Variable,3.5,-,N/A,,Clear,0,2013-01-18 03:53:00
8:53 PM,33.1,32.0,96,30.31,10.0,Calm,Calm,-,N/A,,Clear,0,2013-01-18 04:53:00
9:53 PM,30.9,30.0,96,30.31,8.0,South,3.5,-,N/A,,Clear,180,2013-01-18 05:53:00
10:53 PM,30.0,28.9,96,30.29,7.0,North,-9999.0,-,N/A,,Clear,0,2013-01-18 06:53:00
11:04 PM,30.9,28.9,92,30.28,7.0,North,-9999.0,-,N/A,,Scattered Clouds,0,2013-01-18 07:04:00
11:13 PM,30.9,30.0,96,30.28,7.0,North,-9999.0,-,N/A,,Mostly Cloudy,0,2013-01-18 07:13:00
11:49 PM,33.8,33.8,100,30.28,2.0,North,-9999.0,-,N/A,,Overcast,0,2013-01-18 07:49:00
11:53 PM,34.0,33.1,96,30.29,2.0,North,-9999.0,-,N/A,,Overcast,0,2013-01-18 07:53:00